#timestamp,LO_Frequency,Hit,StdDev 
1567087215.1,286046998.6,N
1567087235.9,286046998.4,N
1567087255.7,286046997.1,N
1567087275.5,286046995.2,N
1567087295.4,286046993.9,N
1567087315.2,286046991.8,N
1567087335.1,286046998.4,N
1567087336.0,286046998.4,N
1567087355.8,286047003.2,N
1567087375.6,286047009.1,N
1567087395.5,286047012.0,N
1567087415.3,286047010.9,N
1567087435.2,286047013.5,N
1567087455.9,286047013.0,N
1567087475.7,286047013.0,N
1567087495.6,286047015.6,N
1567087515.4,286047014.3,N
1567087535.2,286047016.5,N
1567087555.1,286047009.9,N
1567087556.0,286047009.9,N
1567087575.8,286047008.6,N
1567087595.7,286047010.2,N
1567087615.5,286047009.4,N
1567087635.3,286047010.5,N
1567087655.2,286047005.2,N
1567087675.0,286047003.9,N
1567087675.9,286047003.9,N
1567087695.8,286047002.5,N
1567087715.6,286046998.5,N
1567087735.4,286046998.3,N
1567087755.3,286047000.3,N
1567087775.1,286046999.1,N
1567087795.8,286047002.9,N
1567087815.7,286047006.6,N
1567087835.5,286047009.8,N
1567087855.4,286047010.5,N
1567087875.2,286047003.7,N
1567087895.0,286047004.8,N
1567087895.9,286047004.8,N
1567087915.8,286047008.2,N
1567087935.6,286047010.4,N
1567087955.4,286047012.4,N
1567087975.3,286047011.6,N
1567087995.1,286047010.6,N
1567088015.9,286047004.9,N
1567088035.7,286047001.8,N
1567088055.5,286047002.7,N
1567088075.4,286047002.0,N
1567088095.2,286047002.0,N
1567088115.0,286047004.3,N
1567088115.9,286047004.3,N
1567088135.8,286047004.9,N
1567088155.6,286047007.9,N
1567088175.5,286047012.2,Y
1567088195.3,286047007.6,P
1567088215.1,286047005.2,P
1567088235.9,286047005.2,P
1567088255.7,286047004.8,Y
1567088275.6,286046997.9,P
1567088295.4,286046994.1,N
1567088315.2,286046997.8,N
1567088335.1,286046997.2,N
1567088336.0,286046997.2,N
1567088355.8,286046999.4,N
1567088375.6,286046996.9,N
1567088395.5,286046994.6,N
1567088415.3,286046987.4,Y
1567088435.2,286046989.2,P
1567088455.9,286046994.8,N
1567088475.7,286046995.3,N
1567088495.6,286046997.1,N
1567088515.4,286046995.9,N
1567088535.2,286046996.3,N
1567088555.1,286046995.6,N
1567088556.0,286046995.6,N
1567088575.8,286046999.2,N
1567088595.7,286046996.8,N
1567088615.5,286046994.6,N
1567088635.3,286046991.9,Y
1567088655.2,286046995.0,P
1567088675.0,286046997.0,P
1567088675.9,286046997.0,P
1567088695.7,286046998.1,N
1567088715.6,286046998.1,N
1567088735.4,286046993.4,Y
1567088755.3,286046995.6,P
1567088775.1,286046995.8,P
1567088776.0,286046995.8,P
1567088795.8,286046997.2,Y
1567088815.7,286046997.8,P
1567088835.5,286046995.6,P
1567088855.4,286046995.0,P
1567088875.2,286046994.2,Y
1567088895.0,286047002.4,P
1567088895.9,286047002.4,N
1567088915.8,286047001.5,N
1567088935.6,286047005.0,N
1567088955.4,286047002.9,N
1567088975.3,286047007.4,N
1567088995.1,286047007.8,N
1567089015.9,286047010.0,N
1567089035.7,286047010.6,N
1567089055.5,286047010.8,N
1567089075.4,286047008.3,N
1567089095.2,286047005.8,N
1567089115.0,286047003.8,N
1567089115.9,286047003.8,N
1567089135.8,286047004.2,N
1567089155.6,286047004.9,N
1567089175.5,286047004.1,N
1567089195.3,286047003.2,N
1567089215.1,286047002.6,N
1567089235.9,286046998.3,N
1567089255.7,286046998.2,N
1567089275.5,286046998.9,N
1567089295.4,286046999.0,N
1567089315.2,286047000.8,N
1567089335.1,286047002.8,N
1567089336.0,286047002.8,N
1567089355.8,286046998.0,N
1567089375.6,286046995.2,N
1567089395.5,286047001.2,N
1567089415.3,286047001.4,N
1567089435.1,286047003.3,N
1567089455.9,286047001.6,N
1567089475.7,286047000.0,N
1567089495.6,286047001.2,N
1567089515.4,286047002.4,N
1567089535.2,286046999.3,N
1567089555.1,286046993.4,N
1567089556.0,286046993.4,N
1567089575.8,286046994.5,N
1567089595.6,286046991.6,N
1567089615.5,286046985.7,Y
1567089635.3,286046985.8,P
1567089655.2,286046989.6,N
1567089675.9,286046987.5,N
1567089695.7,286046984.2,N
1567089715.6,286046985.4,N
1567089735.4,286046988.9,N
1567089755.2,286046990.2,N
1567089775.1,286046991.5,N
1567089776.0,286046991.5,N
1567089795.8,286046992.5,N
1567089815.7,286046996.4,N
1567089835.5,286046996.1,N
1567089855.3,286046995.5,N
1567089875.2,286046992.8,N
1567089895.0,286046988.7,N
1567089895.9,286046986.3,Y
1567089915.8,286047000.2,P
1567089935.6,286047004.2,N
1567089955.4,286047005.0,N
1567089975.3,286047005.7,N
1567089995.1,286047005.4,N
1567090015.9,286047003.6,N
1567090035.7,286046998.5,N
1567090055.5,286046999.5,N
1567090075.4,286047001.0,N
1567090095.2,286047000.9,N
1567090115.0,286046998.8,N
1567090115.9,286046998.8,N
1567090135.8,286046999.9,N
1567090155.6,286047003.5,N
1567090175.5,286047002.2,N
1567090195.3,286046999.2,N
1567090215.1,286046994.1,N
1567090235.9,286046990.2,N
1567090255.7,286046991.1,N
1567090275.5,286046996.3,N
1567090295.4,286046998.8,N
1567090315.2,286047002.8,N
1567090335.1,286047000.3,N
1567090336.0,286047000.3,N
1567090355.8,286047004.4,N
1567090375.6,286047001.5,N
1567090395.5,286047000.9,N
1567090415.3,286047001.5,N
1567090435.2,286047005.6,N
1567090455.9,286047003.2,N
1567090475.7,286047004.4,N
1567090495.6,286047002.4,N
1567090515.4,286046998.6,N
1567090535.2,286046997.7,N
1567090555.1,286046995.7,N
1567090556.0,286046995.7,N
1567090575.8,286046998.1,N
1567090595.7,286047002.8,N
1567090615.5,286046998.7,N
1567090635.3,286046995.1,N
1567090655.2,286046998.5,N
1567090675.0,286047000.1,N
1567090675.9,286047000.1,N
1567090695.7,286047002.5,N
1567090715.6,286047002.8,N
1567090735.4,286047001.5,N
1567090755.3,286047004.1,N
1567090775.1,286046996.5,N
1567090776.0,286046996.5,N
1567090795.8,286046994.1,N
